| time (UTC) | temp C | wind direction | speed KPH | gust KPH | rain 1hr cm | rain 24hr cm | rain mn cm | humidity % | barometer mb |
| 20260904170031 | 11 | 253 | 0.0 | 0.0 | 0.00 | 1.30 | 0.13 | 87 | 1015.3 |
| 20260904164534 | 10 | 253 | 0.0 | 0.0 | 0.00 | 1.30 | 0.13 | 90 | 1015.3 |
| 20260904163020 | 10 | 257 | 0.0 | 1.6 | 0.00 | 1.30 | 0.13 | 90 | 1015.2 |
| 20260904161522 | 10 | 219 | 0.0 | 0.0 | 0.00 | 1.30 | 0.13 | 95 | 1015.2 |
| 20260904160027 | 9 | 219 | 0.0 | 0.0 | 0.00 | 1.30 | 0.13 | 96 | 1015.1 |
| 20260904154531 | 8 | 219 | 0.0 | 0.0 | 0.00 | 1.30 | 0.13 | 96 | 1014.9 |
| 20260904153043 | 8 | 135 | 0.0 | 0.0 | 0.00 | 1.30 | 0.13 | 96 | 1014.7 |
| 20260904151517 | 7 | 135 | 0.0 | 0.0 | 0.00 | 1.30 | 0.13 | 95 | 1014.6 |
| 20260904150026 | 7 | 135 | 0.0 | 0.0 | 0.00 | 1.30 | 0.13 | 95 | 1014.4 |
| 20260904144532 | 7 | 135 | 0.0 | 1.6 | 0.00 | 1.30 | 0.13 | 96 | 1014.1 |
| 20260904143036 | 7 | 87 | 0.0 | 0.0 | 0.00 | 1.30 | 0.13 | 95 | 1014.2 |
| 20260904141535 | 7 | 87 | 0.0 | 0.0 | 0.00 | 1.30 | 0.13 | 95 | 1014.2 |
| 20260904140019 | 7 | 87 | 0.0 | 0.0 | 0.03 | 1.30 | 0.13 | 95 | 1013.9 |
| 20260904134530 | 7 | 87 | 0.0 | 0.0 | 0.03 | 1.30 | 0.13 | 95 | 1013.9 |
| 20260904133031 | 7 | 87 | 0.0 | 0.0 | 0.03 | 1.32 | 0.13 | 95 | 1013.8 |
| 20260904131512 | 7 | 87 | 0.0 | 0.0 | 0.03 | 1.32 | 0.13 | 95 | 1013.4 |
| 20260904130036 | 7 | 87 | 0.0 | 0.0 | 0.00 | 1.32 | 0.10 | 95 | 1013.1 |
| 20260904124525 | 8 | 87 | 0.0 | 0.0 | 0.00 | 1.32 | 0.10 | 95 | 1012.9 |
| 20260904123012 | 8 | 87 | 0.0 | 0.0 | 0.00 | 1.32 | 0.10 | 95 | 1012.7 |
| 20260904121505 | 8 | 87 | 0.0 | 0.0 | 0.00 | 1.32 | 0.10 | 95 | 1012.7 |
| 20260904120013 | 8 | 87 | 0.0 | 0.0 | 0.00 | 1.32 | 0.10 | 95 | 1012.5 |
| 20260904114516 | 8 | 87 | 0.0 | 0.0 | 0.00 | 1.32 | 0.10 | 95 | 1012.3 |
| 20260904113023 | 8 | 87 | 0.0 | 0.0 | 0.00 | 1.32 | 0.10 | 95 | 1012.1 |
| 20260904111505 | 8 | 87 | 0.0 | 0.0 | 0.00 | 1.32 | 0.10 | 95 | 1012.1 |
| 20260904110010 | 8 | 87 | 0.0 | 0.0 | 0.00 | 1.32 | 0.10 | 95 | 1012.1 |
| 20260904104522 | 8 | 87 | 0.0 | 0.0 | 0.00 | 1.37 | 0.10 | 95 | 1011.8 |
| 20260904103021 | 8 | 87 | 0.0 | 0.0 | 0.00 | 1.40 | 0.10 | 95 | 1011.9 |
| 20260904101530 | 8 | 87 | 0.0 | 0.0 | 0.00 | 1.47 | 0.10 | 95 | 1011.9 |
| 20260904100008 | 8 | 87 | 0.0 | 0.0 | 0.00 | 1.52 | 0.10 | 95 | 1011.7 |
| 20260904094512 | 8 | 87 | 0.0 | 0.0 | 0.03 | 1.57 | 0.10 | 95 | 1011.7 |
| 20260904093024 | 8 | 87 | 0.0 | 0.0 | 0.05 | 1.65 | 0.10 | 95 | 1011.7 |
| 20260904091523 | 8 | 87 | 0.0 | 0.0 | 0.05 | 1.73 | 0.10 | 95 | 1011.5 |
| 20260904090033 | 8 | 87 | 0.0 | 0.0 | 0.08 | 1.75 | 0.10 | 94 | 1011.6 |
| 20260904084530 | 8 | 87 | 0.0 | 0.0 | 0.05 | 1.73 | 0.08 | 94 | 1011.3 |
| 20260904083013 | 8 | 87 | 0.0 | 0.0 | 0.03 | 1.73 | 0.05 | 94 | 1011.5 |
| 20260904081518 | 8 | 87 | 0.0 | 0.0 | 0.03 | 1.75 | 0.05 | 95 | 1011.6 |
| 20260904080025 | 8 | 87 | 0.0 | 0.0 | 0.03 | 1.75 | 0.03 | 94 | 1011.4 |
| 20260904074530 | 8 | 87 | 0.0 | 0.0 | 0.03 | 1.78 | 0.03 | 94 | 1011.4 |
| 20260904073030 | 8 | 87 | 0.0 | 0.0 | 0.03 | 1.83 | 0.03 | 94 | 1011.3 |
| 20260904071520 | 8 | 87 | 0.0 | 0.0 | 0.05 | 1.85 | 0.03 | 94 | 1011.0 |
| 20260904070020 | 8 | 87 | 0.0 | 0.0 | 0.08 | 1.85 | 0.00 | 94 | 1010.5 |
| 20260904064527 | 8 | 87 | 0.0 | 0.0 | 0.13 | 1.85 | 1.85 | 94 | 1011.1 |
| 20260904063032 | 8 | 87 | 0.0 | 0.0 | 0.25 | 1.88 | 1.85 | 94 | 1011.1 |
| 20260904061534 | 8 | 87 | 0.0 | 0.0 | 0.38 | 1.85 | 1.83 | 94 | 1010.9 |
| 20260904060021 | 8 | 87 | 0.0 | 0.0 | 0.36 | 1.80 | 1.78 | 93 | 1011.0 |
| 20260904054513 | 8 | 87 | 0.0 | 0.0 | 0.38 | 1.75 | 1.73 | 93 | 1011.3 |
| 20260904053005 | 8 | 87 | 0.0 | 0.0 | 0.33 | 1.63 | 1.60 | 93 | 1011.3 |
| 20260904051509 | 8 | 123 | 0.0 | 0.0 | 0.23 | 1.47 | 1.45 | 93 | 1011.5 |
| 20260904050017 | 8 | 123 | 0.0 | 0.0 | 0.25 | 1.45 | 1.42 | 92 | 1011.3 |
| 20260904044527 | 8 | 123 | 0.0 | 0.0 | 0.23 | 1.37 | 1.32 | 92 | 1011.4 |
| 20260904043004 | 8 | 123 | 0.0 | 0.0 | 0.23 | 1.30 | 1.27 | 91 | 1011.4 |
| 20260904041506 | 8 | 124 | 0.0 | 0.0 | 0.23 | 1.24 | 1.22 | 91 | 1011.3 |
| 20260904040010 | 9 | 124 | 0.0 | 0.0 | 0.25 | 1.19 | 1.17 | 91 | 1011.4 |
| 20260904034516 | 9 | 124 | 0.0 | 0.0 | 0.30 | 1.14 | 1.12 | 90 | 1011.2 |
| 20260904033022 | 9 | 124 | 0.0 | 0.0 | 0.28 | 1.07 | 1.04 | 90 | 1011.0 |
| 20260904031503 | 10 | 128 | 0.0 | 0.0 | 0.25 | 1.02 | 0.99 | 89 | 1011.0 |
| 20260904030015 | 10 | 137 | 0.0 | 0.0 | 0.20 | 0.94 | 0.91 | 86 | 1010.9 |
| 20260904024511 | 10 | 165 | 0.0 | 0.0 | 0.13 | 0.84 | 0.81 | 84 | 1010.8 |
| 20260904023017 | 11 | 165 | 0.0 | 0.0 | 0.08 | 0.79 | 0.76 | 81 | 1010.6 |
| 20260904021525 | 12 | 165 | 0.0 | 0.0 | 0.05 | 0.76 | 0.74 | 78 | 1010.3 |
| 20260904020004 | 13 | 213 | 0.0 | 0.0 | 0.03 | 0.79 | 0.71 | 76 | 1010.1 |
| 20260904014508 | 13 | 213 | 0.0 | 0.0 | 0.00 | 0.84 | 0.69 | 76 | 1010.0 |
| 20260904013017 | 13 | 213 | 0.0 | 0.0 | 0.00 | 0.84 | 0.69 | 73 | 1010.2 |
| 20260904011527 | 13 | 214 | 0.0 | 0.0 | 0.00 | 0.84 | 0.69 | 74 | 1010.3 |
| 20260904010025 | 14 | 214 | 0.0 | 0.0 | 0.00 | 0.84 | 0.69 | 73 | 1010.3 |
| 20260904004506 | 14 | 213 | 0.0 | 0.0 | 0.00 | 0.84 | 0.69 | 71 | 1010.5 |
| 20260904003012 | 14 | 214 | 0.0 | 0.0 | 0.00 | 0.84 | 0.69 | 69 | 1010.6 |
| 20260904001516 | 15 | 214 | 0.0 | 0.0 | 0.00 | 0.84 | 0.69 | 68 | 1010.6 |
| 20260904000023 | 15 | 264 | 0.0 | 0.0 | 0.00 | 0.84 | 0.69 | 65 | 1010.7 |
| 20260903234530 | 15 | 264 | 0.0 | 0.0 | 0.00 | 0.84 | 0.69 | 67 | 1010.8 |
| 20260903233041 | 15 | 183 | 0.0 | 0.0 | 0.00 | 0.84 | 0.69 | 66 | 1011.0 |
| 20260903231513 | 16 | 183 | 0.0 | 1.6 | 0.00 | 0.84 | 0.69 | 67 | 1011.2 |
| 20260903230016 | 16 | 308 | 0.0 | 1.6 | 0.00 | 0.84 | 0.69 | 63 | 1011.1 |
| 20260903224529 | 16 | 264 | 0.0 | 3.2 | 0.00 | 0.84 | 0.69 | 65 | 1011.3 |
| 20260903223031 | 16 | 116 | 0.0 | 0.0 | 0.00 | 0.84 | 0.69 | 65 | 1011.5 |
| 20260903221531 | 16 | 116 | 0.0 | 0.0 | 0.00 | 0.84 | 0.69 | 66 | 1011.6 |
| 20260903220017 | 16 | 116 | 0.0 | 0.0 | 0.00 | 0.84 | 0.69 | 65 | 1011.8 |
| 20260903214529 | 16 | 108 | 0.0 | 3.2 | 0.00 | 0.84 | 0.69 | 68 | 1011.8 |
| 20260903213025 | 16 | 179 | 0.0 | 0.0 | 0.00 | 0.84 | 0.69 | 64 | 1012.0 |
| 20260903211535 | 16 | 240 | 0.0 | 3.2 | 0.00 | 0.84 | 0.69 | 68 | 1012.2 |
| 20260903210043 | 16 | 160 | 0.0 | 1.6 | 0.00 | 0.84 | 0.69 | 65 | 1012.2 |
| 20260903204518 | 16 | 147 | 0.0 | 0.0 | 0.00 | 0.84 | 0.69 | 62 | 1012.2 |
| 20260903203027 | 15 | 97 | 0.0 | 0.0 | 0.00 | 0.84 | 0.69 | 69 | 1012.4 |
| 20260903201526 | 14 | 102 | 0.0 | 0.0 | 0.00 | 0.84 | 0.69 | 73 | 1012.5 |
| 20260903200029 | 14 | 102 | 0.0 | 0.0 | 0.00 | 0.84 | 0.69 | 70 | 1012.6 |
| 20260903194532 | 14 | 102 | 0.0 | 1.6 | 0.00 | 0.84 | 0.69 | 71 | 1012.7 |
| 20260903193012 | 13 | 245 | 0.0 | 1.6 | 0.00 | 0.84 | 0.69 | 76 | 1013.0 |
| 20260903191505 | 13 | 243 | 0.0 | 0.0 | 0.00 | 0.84 | 0.69 | 77 | 1013.1 |
| 20260903190006 | 13 | 248 | 0.0 | 0.0 | 0.00 | 0.84 | 0.69 | 73 | 1013.2 |
| 20260903184508 | 13 | 248 | 0.0 | 0.0 | 0.00 | 0.84 | 0.69 | 75 | 1013.3 |
| 20260903183012 | 13 | 247 | 0.0 | 0.0 | 0.00 | 0.84 | 0.69 | 79 | 1013.3 |
| 20260903181515 | 13 | 247 | 0.0 | 0.0 | 0.00 | 0.84 | 0.69 | 75 | 1013.3 |
| 20260903180004 | 12 | 246 | 0.0 | 0.0 | 0.00 | 0.84 | 0.69 | 80 | 1013.3 |
| 20260903174505 | 12 | 250 | 0.0 | 3.2 | 0.00 | 0.84 | 0.69 | 80 | 1013.3 |
| 20260903173017 | 11 | 271 | 0.0 | 0.0 | 0.00 | 0.84 | 0.69 | 74 | 1013.3 |
| 20260903171516 | 11 | 323 | 0.0 | 0.0 | 0.00 | 0.84 | 0.69 | 77 | 1013.3 |